{"data":{"norad_id":66407,"intl_designator":"2025-257AD","name":"STARLINK-35686","alt_names":[],"object_type":"PAYLOAD","status":"ACTIVE","operator":null,"country":"US","launch_date":"2025-11-09","launch_site_code":"AFETR","launch_vehicle":null,"mission":null,"orbit_class":"UNKNOWN","rcs_meters":null,"size_class":null,"mass_kg":null,"dimensions":null,"purposes":["comms"],"wikipedia_slug":null,"has_3d_model":false,"image_url":null,"decayed_at":null,"tle_current":{"epoch":"2026-05-25T05:08:15.955584Z","epoch_age_seconds":50495,"freshness":"FRESH","line1":"1 66407U 25257AD  26145.21407356  .00020894  00000+0  62768-3 0  9994","line2":"2 66407  53.1587 220.5804 0001211  74.4693 285.6443 15.34406297 31460","mean_motion":15.34406297,"eccentricity":0.0001211,"inclination_deg":53.1587,"raan_deg":220.5804,"arg_perigee_deg":74.4693,"mean_anomaly_deg":285.6443,"bstar":0.00062768,"rev_number":3146,"period_min":93.847372942579,"perigee_km":461.85610077349,"apogee_km":463.51294774667,"semimajor_km":6840.8215242601,"source":"CELESTRAK","updated_at":"2026-05-25T13:38:21.206055Z"}}}